www.pogodaiklimat.ru

Погода и климат >> Архив погоды >> Мексика >> Altar Son


ПОГОДА в Altar Son

  • Прогноз погоды в Altar Son
  • Монитор погоды в Altar Son
  • Климат города

АРХИВ ПОГОДЫ в Altar Son

Время (UTC), дата Ветер
(напр.,м/с)
 
Видим.   Явления Облачность Т
(С)
Тd
(С)
f
(%)
Тe
(С)
Тes
(С)
Комфортность P
(гПа)
Po
(гПа)
Тmin
(С)
Tmax
(С)
R
(мм)
R24
(мм)
S
(см)
00 18.05 З 4 30 км ясно +30.6 +4.0 19 +29 +32 жарко 1002.8 959.3 +10.8 +31.6
03 18.05 З 4 30 км ясно +30.6 +4.0 19 +29 +29 жарко 1002.8 959.3 +10.8 +31.6
06 18.05 З 3 20 км ясно +26.2 +5.7 27 +26 +26 жарко 1002.3 958.6
12 18.05 СВ 1 20 км ясно +12.6 +6.8 68 +13 +13 1008.0 961.6 +12.5 +31.6
15 18.05 ЮЗ 1 30 км ясно +21.2 +8.3 43 +22 +29 комфорт 1008.9 962.0
18 18.05 ЮЗ 1 30 км ясно +28.4 +7.8 27 +28 +50 жарко 1006.5 961.6 +14.2 +28.5
21 18.05 ЮЗ 3 30 км ясно +29.4 +10.5 31 +30 +45 жарко 1005.2 960.6
00 19.05 З 4 30 км ясно +30.6 +8.8 26 +30 +33 жарко 1003.7 959.4 +11.8 +31.5
03 19.05 З 4 20 км ясно +26.8 +13.5 44 +29 +29 жарко 1003.9 959.6
15 19.05 СВ 1 30 км ясно +16.2 +10.3 68 +17 +23 1008.3 962.6
18 19.05 ЮВ 1 30 км ясно +24.0 +7.2 34 +24 +47 комфорт 1008.0 963.0 +12.0 +24.5
21 19.05 Ю 1 30 км ясно +30.0 +3.4 18 +28 +50 жарко 1007.5 962.2
00 20.05 ЮЗ 1 30 км ясно +32.0 +6.8 21 +30 +36 жарко 1007.0 961.6 +12.0 +32.5
03 20.05 СЗ 2 20 км ясно +28.0 +13.0 40 +30 +30 жарко 1006.0 961.2
15 20.05 ЮВ 1 30 км ясно +15.0 +3.1 45 +16 +22 1009.0 962.5
18 20.05 Ю 1 30 км ясно +29.0 +12.2 35 +30 +52 опасность
солнечного
удара
1008.0 962.0 +11.0 +29.5
21 20.05 ЮЗ 1 30 км ясно +33.0 +15.6 35 +35 +57 опасность
солнечного
удара
1007.0 961.3
00 21.05 З 1 30 км ясно +36.0 +21.6 43 +44 +50 опасность
перегрева
1006.0 961.0 +11.0 +36.5
03 21.05 С 1 20 км ясно +30.0 +3.4 18 +28 +28 жарко 1005.0 960.5
15 21.05 СВ 1 30 км ясно +18.2 +2.4 35 +19 +26 1009.0 963.0
18 21.05 ЮВ 1 30 км ясно +33.0 +15.6 35 +35 +58 опасность
солнечного
удара
1008.5 963.6 +14.0 +33.5
21 21.05 Ю 1 30 км ясно +34.5 +23.6 53 +32 +54 опасность
солнечного
удара
1008.0 963.3
00 22.05 ЮЗ 1 30 км ясно +37.0 +22.9 44 +46 +52 опасность
перегрева
1007.5 963.0 +14.0 +37.5
03 22.05 С 1 20 км ясно +31.2 +10.3 28 +31 +31 жарко 1007.0 962.4
12 22.05 В 1 20 км ясно +17.8 +5.8 45 +19 +19 1008.1 962.5 +17.6 +38.5
15 22.05 ЮВ 1 30 км ясно +21.4 +5.4 35 +22 +28 комфорт 1008.6 963.1
18 22.05 ЮЗ 1 30 км ясно +34.2 +8.3 20 +33 +55 опасность
солнечного
удара
1009.0 964.4 +16.4 +34.4
21 22.05 З 2 30 км ясно +38.8 +11.9 20 +38 +57 опасность
солнечного
удара
1007.0 963.0
00 23.05 ЮЗ 4 30 км ясно +38.8 +5.9 13 +36 +39 очень
жарко
1004.9 961.3 +16.4 +39.7
03 23.05 ЮЗ 3 20 км ясно +34.0 +7.3 19 +32 +32 жарко 1004.7 961.2
12 23.05 С 1 20 км ясно +19.2 +4.6 38 +21 +21 комфорт 1008.3 962.8 +19.0 +39.7
15 23.05 СВ 1 30 км ясно +22.4 +6.2 35 +23 +30 комфорт 1009.4 964.0
18 23.05 Ю 1 30 км ясно +36.0 +12.7 25 +36 +59 опасность
солнечного
удара
1007.9 963.5 +18.6 +36.2
21 23.05 ЮЗ 2 30 км ясно +40.0 +9.2 16 +38 +57 опасность
солнечного
удара
1005.3 961.6
00 24.05 ЮЗ 4 30 км ясно +39.6 +11.2 18 +38 +42 очень
жарко
1004.6 961.2 +18.6 +40.7
03 24.05 ЮЗ 2 20 км ясно +33.6 +7.7 20 +32 +32 жарко 1004.3 960.9
12 24.05 СВ 1 20 км ясно +19.8 +6.1 41 +22 +22 комфорт 1006.1 960.5 +19.8 +40.7
15 24.05 В 1 30 км ясно +22.8 +7.4 37 +24 +30 комфорт 1007.2 962.0
18 24.05 ЮЗ 1 30 км ясно +38.0 +11.0 20 +37 +60 опасность
солнечного
удара
1004.7 960.6 +19.2 +38.2

 

Местоположение метеостанции Altar Son (Мексика): широта 30.71 долгота -111.84 высота над уровнем моря 397 м.

В архиве по умолчанию представлена погода в Altar Son за последнюю неделю. Архивные данные за месяц целиком и за предыдущие месяцы, начиная с января 2011 года, Вы можете получить, выбрав интересующий диапазон дат из раскрывающегося списка и нажав кнопку "Ввод!".

Внимание! Время в таблицах - всемирное. Для получения местного времени необходимо прибавить поправку, которая в Altar Son равна -8 ч.

Смотрите также архив погоды в соседних городах и на ближайших метеорологических станциях:

Погода в Puerto Penasco (Мексика) (176 км)
Погода в Hermosillo (Мексика) (196 км)
Погода в Hermosillo la Magna (Мексика) (201 км)
Погода в Pilares de Nacoz (Мексика) (210 км)
Погода в San Felipe (Мексика) (285 км)
Погода в Guaymas Upper Air Site (Мексика) (324 км)
Погода в Empalme (Мексика) (326 км)
Погода в Ejido Nuevo Leon (Мексика) (362 км)
Погода в Nueva Casas Grandes (Мексика) (379 км)
Погода в Santa Rosalia (Мексика) (384 км)

Пояснения к столбцам:

Ветер - указаны скорость ветра в м/с - средняя за 10 мин, порывы в срок и между сроками (в фигурных скобках) и направление, откуда дует ветер: С - северный, СВ - северо-восточный, В - восточный, ЮВ - юго-восточный, Ю - южный, ЮЗ - юго-западный, З - западный, СЗ - северо-западный.
Видимость - горизонтальная дальность видимости в метрах или километрах. При видимости от 1 до 10 км при отсутствии осадков обычно наблюдается дымка, при ухудшении видимости до 1 км и менее - туман. В сухую погоду видимость может ухудшаться дымом, пылью или мглою.
Явления - указаны атмосферные явления, наблюдавшиеся в срок или в последний час перед сроком; фигурными скобками обозначены явления, наблюдавшиеся между сроками (за 1-3 часа до срока); квадратными скобками обозначены град или гололедные отложения с указанием их диаметра в мм.
Облачность - указаны через наклонную черту общая и нижняя облачность в баллах и высота нижней границы облаков в метрах; квадратными скобками обозначены формы облаков: Ci - перистые, Cs - перисто-слоистые, Cc - перисто-кучевые, Ac - высококучевые, As - высокослоистые, Sc - слоисто-кучевые, Ns - слоисто-дождевые, Cu - кучевые, Cb - кучево-дождевые. Подробнее классификацию облаков см. в Атласе облаков (PDF).
T - Температура воздуха - температура, измеренная на высоте 2 м над землей.
Td - Температура точки росы - температура, при понижении до которой содержащийся в воздухе водяной пар достигнет насыщения.
f - Относительная влажность воздуха - влажноcть воздуха, измеренная на высоте 2 м над землей.
Te - Эффективная температура - температура, которую ощущает одетый по сезону человек в тени. Характеристика душности погоды. При расчете учитывается влияние влажности воздуха и скорости ветра на теплоощущения человека.
Tes - Эффективная температура на солнце - температура, которую ощущает человек, с поправкой на солнечный нагрев. Характеристика знойности погоды. Зависит от высоты солнца над горизонтом, облачности и скорости ветра. Ночью, в пасмурную погоду, а также при ветре 12 м/с и более поправка равна нулю.
P - Атмосферное давление - приведенное к уровню моря атмосферное давление.
Po - Атмосферное давление - измеренное на уровне метеостанции атмосферное давление.
Tmin - Минимальная температура - минимум температуры воздуха на высоте 2 м над землей.
Tmax - Максимальная температура - максимум температуры воздуха на высоте 2 м над землей.
R - Количество осадков - Количество выпавших осадков за период времени, мм. При наведении курсора мыши на число - период времени, за который выпало указанное количество осадков.
R24 - Количество осадков - Количество выпавших осадков за 24 часа, мм.
S - Снежный покров - Высота снежного покрова, см. При наведении курсора мыши на число - состояние снежного покрова и степень покрытия местности в баллах.